Burlington, WA
on Wednesday, November 14, 2012

Wednesday
Previous Day Next Day
Daily Summary
 ActualAverage (KBLI)Record (KBLI)
Temperature
Mean Temperature °F 44°F  
Max Temperature 48°F 50°F 63°F (2004)
Min Temperature 41°F 37°F 9°F (1955)
Degree Days
Heating Degree Days 20 21  
Month to date heating degree days 279  
Cooling Degree Days 0 0  
Month to date cooling degree days 0  
Year to date cooling degree days 42  
Moisture
Dew Point 46°F   
Average Humidity 100    
Maximum Humidity 100    
Minimum Humidity 100    
Precipitation
Precipitation 0.01 in 0.20 in 0.88 in (1998)
Month to date precipitation 2.73  
Year to date precipitation 28.54  
Wind
Wind Speed 2 mph   
Max Wind Speed 7 mph   
Max Gust Speed mph   
Visibility 6 miles   
Events     

Key: T is trace of precipitation, MM is missing value
Source: NWS Daily Summary
Time(PST)TemperatureDew PointHumidity Pressure Visibility Wind DirectionWind SpeedGust SpeedPrecipitationEvents Conditions
12:15 AM 46.4°F 46.4°F 100% 30.19 in 10.0 miles NNW 4.6 mph - 0.00 in   Overcast
12:35 AM 46.4°F 46.4°F 100% 30.20 in 5.0 miles North 3.5 mph - 0.00 in   Overcast
12:55 AM 46.4°F 46.4°F 100% 30.20 in 4.0 miles NNE 5.8 mph - 0.00 in   Overcast
1:15 AM 44.6°F 44.6°F 100% 30.19 in 4.0 miles NE 6.9 mph - 0.00 in   Overcast
1:35 AM 44.6°F 44.6°F 100% 30.20 in 7.0 miles ENE 6.9 mph - 0.01 in   Overcast
1:55 AM 44.6°F 44.6°F 100% 30.20 in 10.0 miles East 5.8 mph - 0.01 in   Overcast
2:15 AM 46.4°F 46.4°F 100% 30.20 in 10.0 miles NE 3.5 mph - 0.00 in   Overcast
2:35 AM 46.4°F 46.4°F 100% 30.21 in 10.0 miles North 3.5 mph - 0.00 in   Overcast
2:55 AM 46.4°F 46.4°F 100% 30.22 in 10.0 miles Calm Calm - 0.00 in   Overcast
3:15 AM 46.4°F 46.4°F 100% 30.22 in 10.0 miles Calm Calm - 0.00 in   Overcast
3:35 AM 46.4°F 46.4°F 100% 30.22 in 10.0 miles ENE 3.5 mph - 0.00 in   Overcast
3:55 AM 46.4°F 46.4°F 100% 30.22 in 10.0 miles ENE 4.6 mph - 0.00 in   Overcast
4:15 AM 46.4°F 46.4°F 100% 30.21 in 10.0 miles Calm Calm - 0.00 in   Overcast
4:35 AM 46.4°F 46.4°F 100% 30.22 in 10.0 miles Calm Calm - 0.00 in   Overcast
4:55 AM 46.4°F 46.4°F 100% 30.23 in 10.0 miles NNE 3.5 mph - 0.00 in   Overcast
5:15 AM 46.4°F 46.4°F 100% 30.24 in 10.0 miles Calm Calm - 0.00 in   Overcast
5:35 AM 46.4°F 46.4°F 100% 30.24 in 10.0 miles Calm Calm - 0.00 in   Overcast
6:35 AM 46.4°F 46.4°F 100% 30.25 in 10.0 miles Calm Calm - 0.00 in   Overcast
6:55 AM 46.4°F 46.4°F 100% 30.25 in 10.0 miles Calm Calm - 0.00 in   Overcast
7:15 AM 46.4°F 46.4°F 100% 30.26 in 7.0 miles Calm Calm - 0.00 in   Overcast
7:35 AM 46.4°F 46.4°F 100% 30.27 in 8.0 miles Calm Calm - 0.00 in   Overcast
7:55 AM 46.4°F 46.4°F 100% 30.27 in 7.0 miles Calm Calm - 0.00 in   Overcast
8:15 AM 46.4°F 46.4°F 100% 30.28 in 9.0 miles Calm Calm - 0.00 in   Overcast
8:35 AM 46.4°F 46.4°F 100% 30.28 in 7.0 miles Calm Calm - 0.00 in   Overcast
8:55 AM 46.4°F 46.4°F 100% 30.29 in 6.0 miles Calm Calm - 0.00 in   Overcast
9:15 AM 46.4°F 46.4°F 100% 30.30 in 5.0 miles Calm Calm - 0.00 in   Overcast
9:35 AM 46.4°F 46.4°F 100% 30.30 in 3.0 miles Calm Calm - 0.00 in   Overcast
10:15 AM 46.4°F 46.4°F 100% 30.31 in 3.0 miles Calm Calm - 0.00 in   Overcast
10:35 AM 46.4°F 46.4°F 100% 30.31 in 5.0 miles Calm Calm - 0.00 in   Overcast
11:15 AM 48.2°F 48.2°F 100% 30.32 in 5.0 miles Calm Calm - 0.00 in   Overcast
11:35 AM 48.2°F 48.2°F 100% 30.32 in 5.0 miles Calm Calm - 0.00 in   Overcast
11:55 AM 48.2°F 48.2°F 100% 30.32 in 8.0 miles NW 3.5 mph - 0.00 in   Overcast
12:15 PM 48.2°F 48.2°F 100% 30.32 in 8.0 miles Calm Calm - 0.00 in   Overcast
12:35 PM 48.2°F 48.2°F 100% 30.32 in 9.0 miles NW 3.5 mph - 0.00 in   Overcast
1:15 PM 48.2°F 48.2°F 100% 30.32 in 9.0 miles Calm Calm - 0.00 in   Overcast
1:35 PM 48.2°F 48.2°F 100% 30.33 in 9.0 miles Calm Calm - 0.00 in   Overcast
1:55 PM 48.2°F 48.2°F 100% 30.33 in 8.0 miles Calm Calm - 0.00 in   Overcast
2:15 PM 48.2°F 48.2°F 100% 30.33 in 7.0 miles Calm Calm - 0.00 in   Overcast
2:35 PM 48.2°F 48.2°F 100% 30.33 in 8.0 miles NW 4.6 mph - 0.00 in   Overcast
2:55 PM 48.2°F 48.2°F 100% 30.33 in 6.0 miles WNW 3.5 mph - 0.00 in   Overcast
3:15 PM 48.2°F 48.2°F 100% 30.33 in 6.0 miles Calm Calm - 0.00 in   Overcast
3:35 PM 48.2°F 48.2°F 100% 30.33 in 7.0 miles Calm Calm - 0.00 in   Overcast
3:55 PM 48.2°F 48.2°F 100% 30.33 in 7.0 miles Calm Calm - 0.00 in   Overcast
4:15 PM 48.2°F 48.2°F 100% 30.33 in 5.0 miles Calm Calm - 0.00 in   Overcast
4:35 PM 48.2°F 48.2°F 100% 30.33 in 5.0 miles Calm Calm - 0.00 in   Overcast
4:55 PM 46.4°F 46.4°F 100% 30.34 in 6.0 miles Calm Calm - 0.00 in   Overcast
5:15 PM 46.4°F 46.4°F 100% 30.33 in 9.0 miles Calm Calm - 0.00 in   Overcast
5:35 PM 46.4°F 46.4°F 100% 30.34 in 8.0 miles NNE 3.5 mph - 0.00 in   Overcast
5:55 PM 46.4°F 46.4°F 100% 30.34 in 7.0 miles Calm Calm - 0.00 in   Mostly Cloudy
6:15 PM 46.4°F 46.4°F 100% 30.34 in 7.0 miles Calm Calm - 0.00 in   Overcast
6:35 PM 46.4°F 46.4°F 100% 30.34 in 6.0 miles Calm Calm - 0.00 in   Overcast
6:55 PM 46.4°F 46.4°F 100% 30.34 in 5.0 miles Calm Calm - 0.00 in   Overcast
7:15 PM 46.4°F 46.4°F 100% 30.34 in 6.0 miles Calm Calm - 0.00 in   Overcast
7:35 PM 46.4°F 46.4°F 100% 30.34 in 5.0 miles Calm Calm - 0.00 in   Mostly Cloudy
7:55 PM 44.6°F 44.6°F 100% 30.33 in 1.8 miles Calm Calm - 0.00 in   Overcast
8:15 PM 44.6°F 44.6°F 100% 30.33 in 0.8 miles Calm Calm - 0.00 in   Overcast
8:35 PM 42.8°F 42.8°F 100% 30.33 in 0.2 miles Calm Calm - 0.00 in   Overcast
8:55 PM 42.8°F 42.8°F 100% 30.33 in 0.2 miles NW 3.5 mph - 0.00 in   Overcast
9:15 PM 44.6°F 44.6°F 100% 30.33 in 0.5 miles Calm Calm - 0.00 in   Overcast
9:35 PM 41.0°F 41.0°F 100% 30.33 in 1.2 miles North 3.5 mph - 0.00 in   Mostly Cloudy
9:55 PM 42.8°F 42.8°F 100% 30.33 in 1.8 miles NNW 4.6 mph - 0.00 in   Clear
10:15 PM 42.8°F 42.8°F 100% 30.32 in 3.0 miles NNE 4.6 mph - 0.00 in   Mostly Cloudy
10:35 PM 42.8°F 42.8°F 100% 30.33 in 5.0 miles ENE 4.6 mph - 0.00 in   Mostly Cloudy
10:55 PM 41.0°F 41.0°F 100% 30.32 in 0.5 miles Calm Calm - 0.00 in   Overcast
11:15 PM 42.8°F 42.8°F 100% 30.32 in 0.2 miles North 3.5 mph - 0.00 in   Overcast
11:35 PM 41.0°F 41.0°F 100% 30.32 in 0.2 miles Calm Calm - 0.00 in   Overcast
11:55 PM 42.8°F 42.8°F 100% 30.31 in 0.2 miles NNE 3.5 mph - 0.00 in   Overcast
Moon Phase
Nov. 14 Nov. 20 Nov. 28 Dec. 06 Dec. 13
Sunrise:07:16 AM (PST) Moon Rise:08:17 AM (PST)11/14
Sunset:04:30 PM (PST) Moon Set:05:19 PM (PST)11/14

Copyright © 2014 The Weather Underground, Inc.